Lawrence, MA

1:17 PM EDT on April 26, 2017 (GMT -0400)
Lawrence Municipal

Weather History for KLWM - October, 2012

Change the Weather History Date:

Monday, October 29, 2012

  Actual Average Record
Temperature  
Mean Temperature 54 °F -  
Max Temperature 57 °F 59 °F 77 °F (1989)
Min Temperature 51 °F 36 °F 24 °F (1976)
Degree Days  
Heating Degree Days 11    
Growing Degree Days 4 (Base 50)    
Moisture  
Dew Point 52 °F    
Average Humidity 89    
Maximum Humidity 94    
Minimum Humidity 86    
Precipitation  
Precipitation 0.44 in - - ()
Sea Level Pressure  
Sea Level Pressure 29.63 in    
Wind  
Wind Speed 20 mph (NE)    
Max Wind Speed 34 mph    
Max Gust Speed 61 mph    
Visibility 3 miles    
Events Rain    
Averages and records for this station are not official NWS values.
T = Trace of Precipitation, MM = Missing Value Source: NWS Daily Summary

Daily Weather History Graph

Daily Weather History Graph

Search for Another Location

Airport or City:

Trip Planner

Search our weather history database for the weather conditions in past years. The results will help you decide how hot, cold, wet, or windy it might be!

Date:

Astronomy

Oct. 29, 2012 Rise Set
Actual Time 7:15 AM EDT 5:40 PM EDT
Civil Twilight 6:46 AM EDT 6:09 PM EDT
Nautical Twilight 6:12 AM EDT 6:42 PM EDT
Astronomical Twilight 5:39 AM EDT 7:15 PM EDT
Moon 5:29 PM EDT (10/29) 7:03 AM EDT (10/29)
Length of Visible Light 11h 23m
Length of Day
10h 25m
Full, 100% of the Moon is Illuminated
Oct 29
Full
Oct 29
Full
Nov 6
Last Quarter
Nov 13
New
Nov 20
First Quarter

Hourly Weather History & Observations

Time (EDT) Temp. Dew Point Humidity Pressure Visibility Wind Dir Wind Speed Gust Speed Precip Events Conditions
12:01 AM 51.8 °F 48.2 °F 88% 29.82 in 2.0 mi NE 15.0 mph - 0.01 in Rain Light Rain
12:12 AM 51.8 °F 48.2 °F 88% 29.81 in 6.0 mi NE 13.8 mph 27.6 mph 0.01 in Rain Light Rain
12:54 AM 54.0 °F 51.1 °F 90% 29.80 in 5.0 mi NE 11.5 mph 24.2 mph 0.02 in Rain Light Rain
1:54 AM 55.0 °F 51.1 °F 86% 29.78 in 5.0 mi NE 17.3 mph 28.8 mph 0.01 in Rain Light Rain
2:54 AM 54.0 °F 51.1 °F 90% 29.76 in 7.0 mi NE 16.1 mph 27.6 mph 0.02 in Rain Light Rain
3:41 AM 53.6 °F 51.8 °F 94% 29.73 in 2.5 mi NE 21.9 mph 28.8 mph 0.03 in Rain Light Rain
3:52 AM 55.4 °F 51.8 °F 88% 29.72 in 4.0 mi ENE 20.7 mph 35.7 mph 0.03 in Rain Light Rain
3:54 AM 55.0 °F 51.1 °F 86% 29.72 in 5.0 mi NE 19.6 mph 35.7 mph 0.03 in Rain Light Rain
4:46 AM 53.6 °F 51.8 °F 94% 29.71 in 2.5 mi NE 20.7 mph 28.8 mph 0.01 in Rain Light Rain
4:54 AM 55.0 °F 51.1 °F 86% 29.70 in 4.0 mi NE 20.7 mph 36.8 mph 0.01 in Rain Light Rain
5:33 AM 55.4 °F 51.8 °F 88% 29.69 in 2.5 mi NE 20.7 mph 28.8 mph 0.01 in Rain Light Rain
5:54 AM 55.0 °F 51.1 °F 86% 29.68 in 2.5 mi NE 19.6 mph 31.1 mph 0.01 in Rain Light Rain
6:54 AM 55.0 °F 52.0 °F 89% 29.66 in 2.5 mi NE 19.6 mph 39.1 mph 0.04 in Rain Light Rain
7:28 AM 55.4 °F 51.8 °F 88% 29.66 in 1.5 mi NE 19.6 mph 36.8 mph 0.04 in Rain Light Rain
7:54 AM 55.9 °F 52.0 °F 87% 29.65 in 1.8 mi NE 17.3 mph 31.1 mph 0.07 in Rain Light Rain
8:50 AM 55.4 °F 51.8 °F 88% 29.64 in 2.0 mi NE 18.4 mph 28.8 mph 0.06 in Rain Rain
8:54 AM 55.9 °F 52.0 °F 87% 29.64 in 1.5 mi NE 23.0 mph 41.4 mph 0.06 in Rain Rain
9:54 AM 55.9 °F 53.1 °F 90% 29.61 in 1.5 mi ENE 23.0 mph 35.7 mph 0.05 in Rain Light Rain
10:54 AM 57.0 °F 53.1 °F 87% 29.57 in 1.0 mi NE 21.9 mph 38.0 mph 0.06 in Rain Rain
11:09 AM 57.2 °F 53.6 °F 88% 29.56 in 2.5 mi NE 25.3 mph 34.5 mph 0.01 in Rain Light Rain
11:20 AM 57.2 °F 53.6 °F 88% 29.56 in 1.8 mi ENE 26.5 mph 39.1 mph 0.01 in Rain Light Rain
11:54 AM 57.0 °F 53.1 °F 87% 29.54 in 1.2 mi NE 25.3 mph 38.0 mph 0.02 in Rain Light Rain
12:42 PM 57.2 °F 53.6 °F 88% 29.49 in 1.8 mi ENE 28.8 mph 41.4 mph 0.02 in Rain Light Rain
12:54 PM 57.0 °F 54.0 °F 89% 29.48 in 1.8 mi ENE 28.8 mph 39.1 mph 0.03 in Rain Light Rain
1:02 PM 57.2 °F 53.6 °F 88% 29.47 in 1.8 mi NE 27.6 mph 41.4 mph 0.00 in Rain Light Rain
1:11 PM 57.2 °F 53.6 °F 88% 29.46 in 2.0 mi ENE 31.1 mph 50.6 mph 0.00 in Rain Light Rain
1:34 PM 57.2 °F 53.6 °F 88% 29.44 in 1.5 mi ENE 34.5 mph 48.3 mph 0.01 in Rain Light Rain
1:54 PM 57.9 °F 55.0 °F 90% 29.42 in 2.0 mi ENE 32.2 mph 48.3 mph 0.01 in Rain Light Rain
2:33 PM 57.2 °F 55.4 °F 94% 29.38 in 4.0 mi ENE 27.6 mph 61.0 mph N/A Rain Light Rain